Find Yaogan Weixing 12

NORAD ID: 37875 Int'l Des: 2011-066 Owner: ZZB Country: CN Constellation: yaogan operational
LEOCIRCULARRETROGRADESSO

当前视图

正在加载3D地球...

关于 Yaogan Weixing 12

正在加载描述...

即将过境

Passes for default location (London). Set your location on the main map for personalized predictions.

高度历史

Loading altitude history...

两行轨道根数

1 37875U 11066B 26151.22222465 .00010454 00000-0 40428-3 0 9999
2 37875 97.1153 190.5898 0007939 288.3351 71.7025 15.26361924809453
Epoch: May 31, 2026 • Age: 10 hours

当前状态

高度 501.8 km
速度 7.61 km/s
星下点 -45.96°S, 121.96°W
发射日期 Nov 9, 2011
运行时间 14.5 years
类型 military

技术详情

分类 Payload
质量 2700.00 kg
干质量 2700.00 kg
总质量 2700.00 kg
长度 2.00 m
直径 2.00 m
跨度 8.00 m
形状 Box + 2 Pan
制造商 CAST
平台类型 JB-10
阶段状态 In Orbit
所有者/国家 ZZB/CN

Most Searched